Location: Wells
(51.2093°N, 2.6446°W)
Time: 16:42:10
(UTC+00:00)

DOVE 4 - Visible Passes

Search period start: 14 March 2026 00:00
Search period end: 24 March 2026 00:00
Orbit: 572 x 755 km, 97.7° (Epoch: 14 March)

Date Brightness Start Highest point End Pass type
(mag) Time Alt. Az. Time Alt. Az. Time Alt. Az.
14 Mar ? 19:37:19 10° NNE 19:41:55 64° ESE 19:46:42 10° S visible
14 Mar ? 21:15:09 10° NNW 21:18:35 21° WNW 21:22:07 10° WSW visible
15 Mar ? 05:08:56 10° E 05:11:09 14° NE 05:13:23 10° NNE visible
15 Mar ? 20:08:08 10° N 20:12:45 71° WNW 20:17:34 10° SSW visible
15 Mar ? 21:47:02 10° NNW 21:49:02 13° NW 21:51:05 10° W visible
16 Mar ? 05:38:15 10° ESE 05:41:37 25° ENE 05:45:05 10° N visible
16 Mar ? 19:02:12 10° NNE 19:06:24 32° E 19:10:45 10° SSE visible
16 Mar ? 20:39:10 10° N 20:43:29 39° WNW 20:47:58 10° SW visible
17 Mar ? 19:32:44 10° NNE 19:37:22 59° E 19:42:13 10° S visible
17 Mar ? 21:10:26 10° N 21:14:04 23° WNW 21:17:51 10° WSW visible
18 Mar ? 05:04:32 10° E 05:06:36 14° NE 05:08:43 10° NNE visible
18 Mar ? 20:03:30 10° N 20:08:13 77° WNW 20:13:07 10° SSW visible
18 Mar ? 21:42:09 10° NNW 21:44:33 14° NW 21:46:59 10° W visible
19 Mar ? 05:33:43 10° ESE 05:37:02 23° ENE 05:40:28 10° N visible
19 Mar ? 18:57:38 10° NNE 19:01:50 30° E 19:06:09 10° SSE visible
19 Mar ? 20:34:30 10° N 20:38:57 42° WNW 20:43:34 10° SW visible
20 Mar ? 19:28:07 10° NNE 19:32:49 55° E 19:37:40 10° S visible
20 Mar ? 21:05:43 10° N 21:09:34 25° WNW 21:13:31 10° WSW visible
21 Mar ? 05:00:07 10° E 05:02:03 13° NE 05:04:01 10° NNE visible
21 Mar ? 19:58:52 10° NNE 20:03:41 82° WNW 20:08:39 10° SSW visible
21 Mar ? 21:37:18 10° NNW 21:40:03 15° NW 21:42:49 10° W visible
22 Mar ? 05:29:11 10° ESE 05:32:27 22° ENE 05:35:51 10° N visible
22 Mar ? 20:29:50 10° N 20:34:25 46° WNW 20:39:09 10° SW visible
23 Mar ? 19:23:31 10° NNE 19:28:15 51° E 19:33:07 10° S visible
23 Mar ? 21:01:00 10° N 21:05:01 27° WNW 21:09:10 10° WSW visible
